This demonstration page uses our WeatherBlox Daily Observations layout. Learn more.

Left ArrowRight Arrow

Hourly Observations for November 11, 2015

Temp ( °F °C ) Dew Point ( °F °C ) Humidity (%) Winds ( mph kmh ) Pressure ( in mb ) Visibility ( mi km ) Precip ( " mm )
12:06 am 00:06 Mostly Cloudy with Mist and Fog 32 0 31 -0.6 96 96 Calm 30.12 1020 2 3 0.00 0.00
12:10 am 00:10 Mostly Cloudy with Mist and Fog 32 0 31 -0.6 96 96 Calm 30.12 1020 3 5 0.00 0.00
12:27 am 00:27 Cloudy with Mist and Fog 32 0 31 -0.6 96 96 Calm 30.12 1020 1 2 0.00 0.00
12:35 am 00:35 Mostly Cloudy with Fog 32 0 32 0 100 100 Calm 30.12 1020 0 0 0.00 0.00
12:53 am 00:53 Mostly Cloudy with Fog 33 0.6 32 0 96 96 Calm 30.08 1019 0 0 0.00 0.00
1:53 am 01:53 Mostly Cloudy with Fog 33 0.6 32 0 96 96 Calm 30.08 1019 1 1 0.00 0.00
2:53 am 02:53 Cloudy with Fog 32 0 32 0 100 100 Calm 30.08 1019 1 1 0.00 0.00
3:53 am 03:53 Mostly Cloudy with Freezing Fog 31 -0.6 31 -0.6 100 100 Calm 30.09 1019 1 1 0.00 0.00
4:53 am 04:53 Mostly Cloudy with Fog 32 0 32 0 100 100 Calm 30.09 1019 0 0 0.00 0.00
5:53 am 05:53 Mostly Cloudy with Fog 33 0.6 33 0.6 100 100 Calm 30.10 1019 0 0 0.00 0.00
6:53 am 06:53 Mostly Cloudy with Fog 33 0.6 33 0.6 100 100 Calm 30.10 1019 0 0 0.00 0.00
7:53 am 07:53 Mostly Cloudy with Fog 33 0.6 33 0.6 100 100 Calm 30.11 1020 0 0 0.00 0.00
8:53 am 08:53 Cloudy with Mist and Fog 37 2.8 37 2.8 100 100 Calm 30.13 1020 1 1 0.00 0.00
9:00 am 09:00 Cloudy with Mist and Fog 37 2.8 37 2.8 100 100 E 3 6 30.12 1020 2 3 0.00 0.00
9:10 am 09:10 Mostly Cloudy with Mist and Fog 38 3.3 37 2.8 97 97 Calm 30.12 1020 2 3 0.00 0.00
9:19 am 09:19 Mostly Cloudy with Mist and Fog 38 3.3 38 3.3 100 100 E 3 6 30.12 1020 2 3 0.00 0.00
9:27 am 09:27 Mostly Cloudy with Mist and Fog 39 3.9 38 3.3 96 96 E 3 6 30.09 1019 2 2 0.00 0.00
9:30 am 09:30 Mostly Cloudy with Mist and Fog 39 3.9 39 3.9 100 100 E 3 6 30.09 1019 2 3 0.00 0.00
9:36 am 09:36 Partly Cloudy with Mist and Fog 40 4.4 40 4.4 100 100 E 5 7 30.09 1019 3 5 0.00 0.00
9:53 am 09:53 Partly Cloudy with Mist and Fog 42 5.6 42 5.6 100 100 E 6 9 30.11 1020 4 6 0.00 0.00
10:53 am 10:53 Sunny 49 9.4 43 6.1 80 80 SSE 6 9 30.09 1019 8 13 0.00 0.00
11:53 am 11:53 Sunny 54 12.2 42 5.6 64 64 SE 6 9 30.07 1018 10 16 0.00 0.00
12:53 pm 12:53 Sunny 59 15 40 4.4 49 49 VRB 5 7 30.03 1017 10 16 0.00 0.00
1:53 pm 13:53 Sunny 60 15.6 42 5.6 52 52 VRB 7 11 30.00 1016 10 16 0.00 0.00
2:53 pm 14:53 Sunny 61 16.1 41 5 48 48 VRB 3 6 29.97 1015 10 16 0.00 0.00
3:53 pm 15:53 Sunny 61 16.1 40 4.4 46 46 S 7 11 29.95 1014 10 16 0.00 0.00
4:53 pm 16:53 Sunny 59 15 40 4.4 49 49 VRB 6 9 29.93 1014 10 16 0.00 0.00
5:53 pm 17:53 Clear 57 13.9 41 5 55 55 SSE 3 6 29.91 1013 10 16 0.00 0.00
6:53 pm 18:53 Clear 55 12.8 41 5 59 59 VRB 5 7 29.88 1012 10 16 0.00 0.00
7:53 pm 19:53 Clear 56 13.3 41 5 57 57 undefined N/A 29.86 1011 10 16 0.00 0.00
8:53 pm 20:53 Clear 55 12.8 40 4.4 57 57 ESE 6 9 29.83 1010 10 16 0.00 0.03
9:53 pm 21:53 Mostly Clear 55 12.8 40 4.4 57 57 VRB 7 11 29.77 1008 10 16 0.00 0.00
10:48 pm 22:48 Cloudy with Nearby Thunderstorms 52 11 45 7 77 77 VRB 5 7 29.77 1008 8 13 0.03 0.76
10:53 pm 22:53 Cloudy with Nearby Thunderstorms 53 11.7 44 6.7 72 72 SE 7 11 29.75 1008 9 14 0.03 0.76
11:03 pm 23:03 Cloudy with Rain 52 11.1 45 7.2 77 77 SE 7 11 29.74 1007 7 11 0.02 0.51
11:37 pm 23:37 Cloudy with Heavy Rain 50 10 47 8.3 89 89 VRB 5 7 29.77 1008 3 4 0.13 3.30
11:48 pm 23:48 Cloudy with Rain 50 10 46 8 88 88 SE 5 7 29.77 1008 3 5 0.17 4.32
11:53 pm 23:53 Cloudy with Rain 50 10 47 8.3 89 89 ESE 5 7 29.72 1006 5 8 0.17 4.32

Powered by AerisWeather